User: anonymous   Login
Location: Unspecified
(0.0000°N, 0.0000°E)
Time: 17:25:48
(UTC+00:00)
Language:

APRIZESAT 4 - Orbit

View from above orbital plane
View from above orbital plane
View from above satellite
View from above satellite

Ground track
Ground track

The orbit data is extracted from the following two-line orbital elements,

1 35684U 09041D   21025.50538958  .00000063  00000-0  16072-4 0  9992
2 35684  98.2975  17.0415 0047098 179.0907 181.0397 14.79331648620011
Epoch (UTC): 25 January 2021 12:07:45
Eccentricity: 0.0047098
inclination: 98.2975°
perigee height: 598 km
apogee height: 664 km
right ascension of ascending node: 17.0415°
argument of perigee: 179.0907°
revolutions per day: 14.79331648
mean anomaly at epoch: 181.0397°
orbit number at epoch: 62001

The dashed part of the orbit path shows where the satellite is in the earth's shadow,  

DLR